Kuchera_Ratio
0.0 0.0 0.0 0.0 0.0 0.0 0.0 0.0 0.0 0.0 0.0 0.0 0.0 0.0 0.0 0.0 0.0 0.0 0.0 0.0 0.0 0.0 0.0 0.0 0.0 0.0 0.0 0.0 4.9 0.0 1.2 0.0 0.5 9.4 12.7 11.8 10.8 6.2 10.9 0.4 7.9 10.9 12.9 13.5 13.0 14.1 15.9 0.0 0.0 4.8 0.0 0.0 0.0 0.0
0.0 0.0 0.0 0.0 0.0 0.0 0.0 0.0 0.0 0.0 0.0 0.0 0.0 0.0 0.0 0.0 0.0 0.0 0.0 0.0 0.0 0.1 0.0 0.0 0.0 0.0 0.0 0.0 0.0 0.0 1.0 1.0 0.0 8.2 7.1 7.1 13.2 5.5 11.6 14.9 1.2 11.4 1.9 7.7 8.7 9.5 0.0 0.0 0.0 0.0 0.0 0.0 0.0 0.0
0.0 0.0 0.0 0.0 0.0 0.0 0.0 0.0 0.0 0.0 0.0 0.0 0.0 0.0 0.0 0.0 0.0 0.0 0.0 0.0 0.0 0.0 0.0 0.0 0.0 0.0 0.0 0.0 0.0 5.1 1.2 0.0 0.0 0.0 2.8 8.9 13.7 7.5 14.1 13.1 6.6 3.2 0.0 4.0 3.6 0.0 0.0 0.0 0.0 0.0 0.0 0.0 0.0 0.0
0.0 0.0 0.0 0.0 0.0 0.0 0.0 0.0 0.0 0.0 0.0 0.0 0.0 0.0 0.0 0.0 0.0 0.0 0.0 0.0 0.0 0.0 9.1 4.4 0.0 0.0 0.0 0.0 0.0 0.0 0.0 0.0 0.0 0.0 7.0 9.8 11.0 1.9 10.5 7.4 9.2 4.6 1.5 7.0 5.4 0.0 0.0 0.0 0.0 0.0 0.0 0.0 0.0 0.0
0.0 0.0 0.0 0.0 0.0 0.0 0.0 0.0 0.0 0.0 0.0 0.0 0.0 0.0 0.0 0.0 0.0 0.0 0.0 0.0 0.0 0.8 10.6 7.1 0.0 0.0 0.0 0.0 0.0 0.0 0.0 0.0 2.4 8.0 9.4 12.5 5.9 9.0 5.3 6.3 10.6 2.5 6.2 10.0 10.9 0.0 0.0 0.0 0.0 0.0 0.0 0.0 0.0 0.0
0.0 0.0 0.0 0.0 0.0 0.0 0.0 0.0 0.0 0.0 0.0 0.0 0.0 0.0 0.0 0.0 0.0 0.0 1.3 0.0 0.0 0.0 6.4 13.4 0.0 0.0 0.0 0.0 0.0 0.0 0.0 0.3 2.2 8.9 8.7 8.1 0.0 5.7 13.4 14.7 3.3 0.8 0.0 0.0 1.0 0.0 0.0 0.0 0.0 0.0 0.0 0.0 0.0 0.0
0.0 0.0 0.0 0.0 0.0 0.0 0.0 0.0 0.0 0.0 0.0 0.0 0.0 0.0 0.0 0.0 0.0 0.0 2.6 0.0 0.0 0.0 7.1 13.1 11.6 0.0 0.0 0.0 0.0 0.0 0.0 1.3 3.4 5.3 7.7 7.0 6.4 6.5 13.6 14.3 4.5 0.5 0.0 0.0 0.0 0.0 4.5 0.0 4.6 0.0 0.0 0.0 0.0 0.0
0.0 0.0 0.0 0.0 0.0 0.0 0.0 0.0 0.0 0.0 0.0 0.0 0.0 0.0 0.0 0.0 0.0 0.0 0.0 0.0 0.0 0.4 4.1 14.9 14.7 8.9 0.0 8.6 7.2 0.0 8.4 4.9 8.4 10.9 9.4 8.4 7.7 8.4 14.4 7.9 2.9 0.0 0.0 0.0 0.3 0.0 0.4 0.0 0.0 0.0 0.0 0.0 0.0 0.0
0.0 0.0 0.0 0.0 0.0 0.0 0.0 0.0 0.0 0.0 0.0 0.0 0.0 0.0 0.0 0.0 1.2 0.5 0.0 0.0 0.0 1.1 13.1 12.7 16.8 14.8 2.4 8.1 3.6 8.2 4.0 15.0 8.6 12.9 10.9 9.9 14.4 15.1 10.9 5.0 3.7 1.7 3.3 3.0 0.0 0.0 0.0 0.8 0.3 0.0 0.0 0.0 0.3 0.8
0.0 0.0 0.0 0.0 0.0 0.0 0.0 0.0 0.0 0.0 0.0 0.0 0.0 1.0 9.0 0.5 0.0 0.0 0.7 5.3 6.2 5.4 8.2 13.2 10.1 14.1 8.4 9.2 10.7 9.9 8.9 14.7 14.8 13.3 8.0 14.7 13.7 4.8 1.7 0.0 0.0 0.0 0.0 1.7 4.8 6.3 3.8 4.4 2.4 0.4 0.0 0.0 0.0 0.0
0.0 0.0 0.0 0.0 0.0 0.0 0.0 0.0 0.0 0.0 0.0 0.0 4.4 8.4 1.2 0.0 2.2 5.5 13.3 14.1 13.2 13.9 11.5 10.1 11.6 12.8 2.4 13.5 13.4 10.3 15.1 14.3 19.4 14.1 14.5 14.9 14.4 10.3 1.0 0.0 0.0 0.0 0.0 0.1 0.0 0.9 0.8 1.0 1.9 1.2 0.4 0.0 0.0 0.0
0.0 0.0 0.0 0.0 0.0 0.0 0.0 0.0 0.0 0.0 0.0 0.0 0.7 0.0 0.4 6.8 10.5 14.2 17.3 13.1 13.9 16.3 9.8 10.6 10.1 9.7 9.7 3.3 12.4 12.1 15.2 14.7 19.1 11.2 15.6 18.5 13.1 5.7 3.6 0.0 0.0 0.0 0.0 0.0 0.0 0.1 0.0 0.0 0.0 0.0 0.0 0.0 0.0 0.0
0.0 0.0 0.0 0.0 0.0 0.0 0.0 0.0 0.0 0.0 0.0 0.0 6.0 9.7 12.2 13.7 16.8 17.8 21.3 17.2 16.4 11.8 11.8 10.0 11.4 9.2 9.7 7.7 12.0 15.6 16.1 18.6 8.9 15.9 18.6 14.0 6.0 4.0 3.7 1.2 0.6 0.0 0.0 0.0 0.0 0.0 0.0 0.0 0.0 0.0 0.0 0.0 0.0 0.3
0.0 0.0 0.0 0.0 0.0 0.0 0.0 0.0 0.0 0.0 1.5 11.9 13.4 18.5 15.6 17.6 15.9 15.4 14.6 15.2 10.4 10.0 10.0 10.7 10.9 10.6 10.0 13.7 13.3 16.4 15.5 14.8 19.4 19.1 18.5 12.8 7.0 3.7 1.5 0.0 0.5 2.1 0.5 0.5 0.9 0.0 0.0 0.3 0.3 0.0 0.0 0.0 1.0 1.8
0.0 0.0 0.0 0.0 0.0 0.0 0.0 0.0 0.0 0.0 5.1 13.6 14.0 18.2 17.2 13.3 12.3 12.0 11.7 11.7 7.2 6.8 12.1 12.6 12.8 12.7 14.7 16.3 15.9 15.7 19.7 19.5 18.8 18.6 13.8 7.6 6.3 2.3 1.5 1.0 1.3 1.8 2.1 2.6 0.6 1.5 1.1 0.9 1.7 2.0 0.6 0.2 0.7 1.5
0.0 0.0 0.0 0.0 0.0 0.0 0.0 0.0 0.0 0.1 7.9 11.7 12.7 14.6 13.1 14.3 13.3 12.7 12.6 12.9 7.4 6.8 7.9 12.6 14.2 16.7 17.0 15.9 18.2 19.8 19.6 19.4 15.9 13.6 9.1 5.6 5.8 2.5 2.7 2.3 2.6 1.5 1.2 1.4 1.1 1.3 1.6 2.2 2.6 2.9 1.8 1.7 1.8 2.4
0.0 1.3 0.0 0.0 0.0 0.0 0.0 0.0 6.3 9.1 11.3 13.6 14.4 11.4 13.1 13.3 13.1 12.7 10.3 10.0 2.7 12.2 14.3 13.8 17.1 17.7 15.9 16.9 20.5 15.6 17.2 14.1 11.0 9.8 5.1 3.7 4.4 3.8 3.2 3.1 2.5 2.3 2.1 2.5 2.9 2.9 2.9 1.9 2.3 3.9 6.4 4.1 3.2 3.5
0.6 0.0 0.0 0.0 0.0 0.0 0.0 6.7 8.6 11.1 14.7 15.6 15.1 14.9 12.5 8.1 12.6 11.1 6.5 5.6 7.3 11.4 12.6 15.2 12.7 17.1 18.3 21.3 17.5 13.7 12.0 9.3 6.3 6.0 4.9 3.9 2.6 1.1 0.7 3.4 1.7 2.5 3.3 3.5 3.9 4.3 4.8 5.8 7.5 7.2 6.3 6.2 6.9 7.4
0.0 0.0 0.0 0.0 0.0 7.0 9.7 10.3 9.4 15.0 15.6 15.4 12.4 9.2 8.7 9.6 6.4 3.6 4.5 3.6 3.7 5.0 10.3 14.4 16.7 18.3 17.3 12.9 13.0 12.5 11.0 9.5 9.3 5.7 4.1 1.2 0.7 1.2 1.2 1.9 3.2 4.3 4.6 5.0 5.2 5.0 4.2 4.2 4.9 4.9 5.0 5.5 7.0 6.7
0.0 0.0 0.0 0.0 1.9 9.1 12.7 12.3 9.0 15.4 15.8 15.0 12.3 14.3 12.9 13.5 8.0 8.2 8.1 8.1 8.7 13.8 14.6 16.6 16.7 12.7 12.0 8.5 6.0 6.4 5.9 4.5 5.4 8.2 7.4 4.4 1.7 2.3 3.8 4.4 4.0 3.6 4.3 4.3 4.8 2.2 4.9 5.3 4.6 4.7 5.5 6.5 7.5 7.6
0.0 0.0 0.0 0.0 7.7 8.2 11.1 12.7 13.3 12.6 15.1 15.2 14.7 14.8 14.4 12.3 14.3 14.3 13.8 10.3 15.1 14.6 15.4 12.9 10.4 6.6 3.1 2.7 1.9 2.3 3.0 2.8 5.8 6.2 7.2 8.6 3.5 3.6 4.0 3.9 4.3 4.8 5.8 5.9 7.1 5.8 4.1 5.6 4.6 4.3 5.8 6.0 5.0 5.2
4.1 0.0 6.9 6.2 9.2 10.8 12.0 10.7 12.7 13.0 15.5 16.4 16.1 15.6 15.9 15.9 15.1 14.3 12.2 14.6 14.5 13.2 10.7 8.4 7.7 6.9 7.2 6.7 3.9 2.8 2.9 3.5 3.9 4.3 2.2 3.2 8.1 8.3 8.0 6.0 6.9 9.3 7.8 7.1 6.5 7.0 6.4 5.1 4.3 4.6 6.0 6.6 3.9 5.0
1.9 4.3 8.0 8.7 12.9 13.3 14.2 10.9 15.4 16.0 18.4 16.7 17.8 18.1 17.8 16.3 14.4 15.0 15.4 14.7 13.3 7.2 6.3 6.9 6.0 4.7 6.5 4.9 4.8 5.0 4.5 5.8 8.0 7.1 6.5 6.3 5.6 5.6 6.3 6.3 6.0 8.3 9.7 7.1 5.6 6.5 7.0 3.4 4.0 5.3 6.1 7.4 8.8 10.2
0.6 10.1 13.2 14.2 14.4 16.4 13.8 15.5 14.9 14.9 15.5 18.1 19.1 18.5 18.4 16.1 16.7 18.0 18.1 13.9 10.4 7.6 8.2 8.1 6.9 9.2 7.3 8.7 10.5 8.8 6.2 5.3 6.3 6.3 5.3 6.0 8.3 6.5 5.5 5.8 5.0 4.8 5.0 4.7 5.8 7.1 7.4 8.5 7.6 9.8 10.2 10.9 11.0 11.3
14.7 15.0 14.4 16.7 16.2 17.0 19.7 19.8 17.9 17.0 19.2 20.6 20.7 18.6 17.9 17.9 18.9 18.7 17.8 13.8 12.2 11.2 8.9 8.3 8.6 9.6 11.8 10.3 8.2 5.6 2.5 4.7 6.7 8.9 8.1 7.6 10.0 10.9 11.1 9.4 7.7 5.5 4.9 10.8 11.4 11.1 11.0 10.4 10.4 10.8 11.0 11.2 11.5 11.5
18.3 16.1 16.6 16.7 17.5 18.9 19.2 19.8 19.7 19.5 19.5 19.8 19.1 17.2 18.8 19.7 20.1 19.4 17.1 12.0 11.7 9.2 8.6 9.2 10.3 9.6 9.1 6.6 7.8 7.8 6.8 5.1 9.9 12.5 11.0 9.6 11.6 12.5 13.3 13.7 13.6 12.2 6.9 9.9 11.4 12.1 12.1 11.4 11.5 11.6 11.4 10.7 8.3 9.3
18.9 19.2 15.9 12.2 15.5 15.7 18.2 16.4 16.4 18.7 19.5 19.2 18.5 18.9 18.9 22.6 21.8 16.4 10.9 5.7 5.9 3.7 1.3 2.5 6.2 9.0 9.6 8.1 7.5 7.6 8.9 10.2 12.1 12.4 12.1 12.9 12.8 12.6 13.4 14.2 14.2 12.1 9.6 10.6 11.1 12.1 12.6 12.5 12.6 12.5 12.3 12.0 11.9 11.8
15.7 15.8 18.4 16.7 16.5 16.0 18.1 18.7 18.5 18.1 17.7 16.5 17.9 19.1 19.0 19.0 16.2 10.6 6.0 1.1 1.9 2.0 3.6 4.9 6.6 8.4 11.2 12.6 11.7 12.4 12.9 13.0 13.1 13.2 13.4 13.1 12.8 13.1 13.0 12.6 11.9 10.6 11.9 12.4 12.5 12.2 12.3 12.3 12.5 12.4 12.3 12.7 12.3 11.8
16.3 15.2 15.0 18.3 17.4 17.3 17.0 18.1 17.7 15.2 13.7 15.2 17.0 17.0 16.7 12.4 6.1 6.6 3.9 3.7 3.8 6.3 9.4 9.8 11.2 12.7 13.5 13.1 13.1 13.6 14.4 15.5 17.3 18.7 18.3 17.7 16.5 15.1 13.3 13.9 13.9 13.6 13.3 13.1 10.7 9.8 10.8 10.4 10.1 9.9 10.4 12.3 11.5 9.7
16.4 13.9 16.0 18.2 18.6 18.2 15.2 14.3 13.9 12.9 12.3 13.1 13.1 13.0 9.8 9.1 5.0 1.9 4.6 5.9 8.1 11.9 13.4 14.6 15.4 16.0 15.9 16.8 17.2 16.6 15.6 16.1 16.2 17.0 18.0 18.3 17.3 15.2 14.8 14.5 14.1 13.4 12.9 12.8 12.8 12.3 8.5 9.6 9.4 10.3 9.6 10.0 12.1 10.8
14.1 15.0 15.5 17.1 18.3 14.4 14.1 13.3 13.2 13.8 14.1 14.2 14.0 14.9 13.9 12.1 7.9 7.0 10.6 12.9 14.3 15.2 15.6 15.9 16.1 16.7 17.6 17.9 18.3 18.5 18.0 16.7 15.9 16.1 16.2 15.6 15.4 14.9 14.3 13.1 12.6 12.1 11.7 12.1 12.3 12.2 12.2 12.9 13.2 11.8 12.0 12.1 11.9 11.0
14.9 16.1 17.5 18.5 18.3 14.6 14.2 14.4 14.5 14.7 14.5 14.9 14.7 14.4 15.1 15.8 15.7 12.0 14.4 14.9 14.8 16.2 16.6 17.1 16.9 17.1 17.3 17.7 17.6 17.5 15.7 17.0 17.0 16.3 16.3 15.4 14.7 13.7 13.1 12.4 12.3 12.5 12.8 13.0 12.4 12.9 13.2 13.6 12.7 11.4 11.3 11.5 9.1 9.1
17.7 17.5 17.0 15.4 17.0 16.4 16.3 15.2 16.4 17.8 17.5 16.2 14.4 14.4 15.0 15.2 15.9 15.2 15.3 15.0 15.5 16.6 17.1 17.0 17.5 17.7 17.6 18.0 18.6 18.1 15.9 16.4 16.0 14.3 13.9 13.1 11.8 12.0 12.2 12.9 13.4 13.5 13.7 13.6 13.4 13.9 14.2 13.3 9.7 10.3 11.1 10.2 8.7 10.1